Wahpeton, MN

6:26 PM CDT on September 23, 2017 (GMT -0500)
Stern

Weather History for KBWP - April, 2013

Change the Weather History Date:

Tuesday, April 9, 2013

  Actual Average (KFFM) Record (KFFM)
Temperature  
Mean Temperature 20 °F -  
Max Temperature 26 °F 48 °F 76 °F (1988)
Min Temperature 15 °F 28 °F 8 °F (1997)
Degree Days  
Heating Degree Days 44    
Moisture  
Dew Point 15 °F    
Average Humidity 75    
Maximum Humidity 80    
Minimum Humidity 68    
Precipitation  
Precipitation 0.00 in - - ()
Sea Level Pressure  
Sea Level Pressure 30.25 in    
Wind  
Wind Speed 22 mph (North)    
Max Wind Speed 29 mph    
Max Gust Speed 36 mph    
Visibility 10 miles    
Events      
Averages and records for this station are not official NWS values.
T = Trace of Precipitation, MM = Missing Value Source: NWS Daily Summary

Daily Weather History Graph

Daily Weather History Graph

Search for Another Location

Airport or City:

Trip Planner

Search our weather history database for the weather conditions in past years. The results will help you decide how hot, cold, wet, or windy it might be!

Date:

Astronomy

Apr. 09, 2013 Rise Set
Actual Time 6:50 AM CDT 8:06 PM CDT
Civil Twilight 6:19 AM CDT 8:37 PM CDT
Nautical Twilight 5:42 AM CDT 9:14 PM CDT
Astronomical Twilight 5:02 AM CDT 9:54 PM CDT
Moon 6:15 AM CDT (4/9) 7:43 PM CDT (4/9)
Length of Visible Light 14h 17m
Length of Day
13h 15m
Waning Crescent, 1% of the Moon is Illuminated
Apr 9
Waning Crescent
Apr 10
New
Apr 18
First Quarter
Apr 25
Full
May 2
Last Quarter

Hourly Weather History & Observations

Time (CDT) Temp. Windchill Dew Point Humidity Pressure Visibility Wind Dir Wind Speed Gust Speed Precip Events Conditions
12:15 AM 21.2 °F 4.2 °F 15.8 °F 80% 30.23 in 10.0 mi North 25.3 mph 29.9 mph N/A   Clear
12:35 AM 21.2 °F 6.0 °F 14.0 °F 74% 30.23 in 10.0 mi North 19.6 mph 29.9 mph N/A   Unknown
12:55 AM 19.4 °F 2.5 °F 14.0 °F 80% 30.22 in 10.0 mi North 23.0 mph 29.9 mph N/A   Unknown
1:15 AM 19.4 °F 1.8 °F 12.2 °F 74% 30.19 in 10.0 mi North 25.3 mph 33.4 mph N/A   Clear
1:35 AM 19.4 °F 2.5 °F 12.2 °F 74% 30.20 in 10.0 mi North 23.0 mph 32.2 mph N/A   Clear
1:55 AM 19.4 °F 1.8 °F 12.2 °F 74% 30.22 in 10.0 mi North 25.3 mph 32.2 mph N/A   Clear
2:15 AM 19.4 °F 2.5 °F 12.2 °F 74% 30.25 in 10.0 mi North 23.0 mph 31.1 mph N/A   Clear
2:35 AM 19.4 °F 2.5 °F 12.2 °F 74% 30.23 in 10.0 mi North 23.0 mph 33.4 mph N/A   Clear
2:55 AM 19.4 °F 1.8 °F 12.2 °F 74% 30.21 in 10.0 mi North 25.3 mph 32.2 mph N/A   Clear
3:15 AM 19.4 °F 1.8 °F 12.2 °F 74% 30.22 in 10.0 mi North 25.3 mph 35.7 mph N/A   Clear
3:35 AM 19.4 °F 2.1 °F 12.2 °F 74% 30.22 in 10.0 mi North 24.2 mph 34.5 mph N/A   Clear
3:55 AM 17.6 °F -0.6 °F 12.2 °F 79% 30.23 in 10.0 mi North 25.3 mph 34.5 mph N/A   Scattered Clouds
4:15 AM 17.6 °F 0.1 °F 10.4 °F 73% 30.22 in 10.0 mi North 23.0 mph 33.4 mph N/A   Unknown
4:35 AM 17.6 °F -0.6 °F 10.4 °F 73% 30.20 in 10.0 mi North 25.3 mph 34.5 mph N/A   Unknown
4:55 AM 17.6 °F -1.0 °F 10.4 °F 73% 30.19 in 10.0 mi North 26.5 mph 35.7 mph N/A   Unknown
5:15 AM 17.6 °F 0.5 °F 10.4 °F 73% 30.20 in 10.0 mi North 21.9 mph 34.5 mph N/A   Clear
5:35 AM 17.6 °F 1.7 °F 10.4 °F 73% 30.23 in 10.0 mi North 18.4 mph 32.2 mph N/A   Clear
5:55 AM 17.6 °F 1.7 °F 10.4 °F 73% 30.24 in 10.0 mi North 18.4 mph 25.3 mph N/A   Clear
6:15 AM 17.6 °F 1.7 °F 10.4 °F 73% 30.24 in 10.0 mi North 18.4 mph 25.3 mph N/A   Clear
6:35 AM 17.6 °F 2.2 °F 10.4 °F 73% 30.24 in 10.0 mi North 17.3 mph 27.6 mph N/A   Clear
6:55 AM 15.8 °F -1.1 °F 8.6 °F 73% 30.25 in 10.0 mi North 19.6 mph 26.5 mph N/A   Clear
7:15 AM 15.8 °F -0.6 °F 8.6 °F 73% 30.25 in 10.0 mi North 18.4 mph 25.3 mph N/A   Clear
7:35 AM 15.8 °F -0.2 °F 8.6 °F 73% 30.26 in 10.0 mi North 17.3 mph 25.3 mph N/A   Clear
7:55 AM 15.8 °F -1.1 °F 8.6 °F 73% 30.27 in 10.0 mi North 19.6 mph 28.8 mph N/A   Clear
8:15 AM 17.6 °F 1.7 °F 8.6 °F 68% 30.28 in 10.0 mi North 18.4 mph 25.3 mph N/A   Scattered Clouds
8:35 AM 17.6 °F 2.7 °F 8.6 °F 68% 30.28 in 10.0 mi North 16.1 mph 27.6 mph N/A   Unknown
8:55 AM 17.6 °F 0.9 °F 10.4 °F 73% 30.28 in 10.0 mi North 20.7 mph 26.5 mph N/A   Unknown
9:15 AM 17.6 °F 0.9 °F 10.4 °F 73% 30.28 in 10.0 mi North 20.7 mph 27.6 mph N/A   Clear
9:35 AM 17.6 °F 1.7 °F 10.4 °F 73% 30.28 in 10.0 mi North 18.4 mph 25.3 mph N/A   Clear
9:55 AM 17.6 °F 0.9 °F 10.4 °F 73% 30.28 in 10.0 mi North 20.7 mph - N/A   Clear
10:15 AM 17.6 °F 0.9 °F 10.4 °F 73% 30.29 in 10.0 mi North 20.7 mph 26.5 mph N/A   Clear
10:35 AM 17.6 °F 0.5 °F 10.4 °F 73% 30.31 in 10.0 mi NNW 21.9 mph 27.6 mph N/A   Clear
10:55 AM 17.6 °F 1.3 °F 10.4 °F 73% 30.31 in 10.0 mi North 19.6 mph - N/A   Clear
11:15 AM 17.6 °F 0.5 °F 12.2 °F 79% 30.31 in 10.0 mi North 21.9 mph 28.8 mph N/A   Clear
11:35 AM 17.6 °F 1.7 °F 12.2 °F 79% 30.31 in 10.0 mi North 18.4 mph 27.6 mph N/A   Clear
11:55 AM 19.4 °F 2.8 °F 12.2 °F 74% 30.30 in 10.0 mi North 21.9 mph 28.8 mph N/A   Unknown
12:15 PM 19.4 °F 2.1 °F 14.0 °F 80% 30.29 in 10.0 mi North 24.2 mph 27.6 mph N/A   Unknown
12:35 PM 21.2 °F 5.2 °F 14.0 °F 74% 30.29 in 10.0 mi North 21.9 mph 28.8 mph N/A   Unknown
12:55 PM 21.2 °F 4.9 °F 14.0 °F 74% 30.30 in 10.0 mi North 23.0 mph 28.8 mph N/A   Unknown
1:15 PM 21.2 °F 4.9 °F 14.0 °F 74% 30.29 in 10.0 mi North 23.0 mph 28.8 mph N/A   Clear
1:35 PM 21.2 °F 4.2 °F 14.0 °F 74% 30.28 in 10.0 mi North 25.3 mph - N/A   Clear
1:55 PM 21.2 °F 4.9 °F 15.8 °F 80% 30.27 in 10.0 mi North 23.0 mph 29.9 mph N/A   Clear
2:15 PM 23.0 °F 6.3 °F 17.6 °F 80% 30.26 in 10.0 mi North 26.5 mph 33.4 mph N/A   Clear
2:35 PM 23.0 °F 6.6 °F 17.6 °F 80% 30.26 in 10.0 mi North 25.3 mph 32.2 mph N/A   Clear
2:55 PM 24.8 °F 9.3 °F 17.6 °F 74% 30.25 in 10.0 mi North 24.2 mph 31.1 mph N/A   Clear
3:15 PM 23.0 °F 6.9 °F 17.6 °F 80% 30.26 in 10.0 mi North 24.2 mph 29.9 mph N/A   Clear
3:35 PM 24.8 °F 8.7 °F 17.6 °F 74% 30.26 in 10.0 mi North 26.5 mph 29.9 mph N/A   Clear
3:55 PM 24.8 °F 9.0 °F 19.4 °F 80% 30.26 in 10.0 mi North 25.3 mph 33.4 mph N/A   Clear
4:15 PM 24.8 °F 8.1 °F 17.6 °F 74% 30.23 in 10.0 mi North 28.8 mph 33.4 mph N/A   Clear
4:35 PM 26.6 °F 12.0 °F 19.4 °F 74% 30.24 in 10.0 mi North 23.0 mph 33.4 mph N/A   Clear
4:55 PM 26.6 °F 12.4 °F 19.4 °F 74% 30.26 in 10.0 mi North 21.9 mph 25.3 mph N/A   Unknown
5:15 PM 26.6 °F 11.4 °F 19.4 °F 74% 30.27 in 10.0 mi North 25.3 mph 29.9 mph N/A   Unknown
5:35 PM 26.6 °F 11.4 °F 19.4 °F 74% 30.28 in 10.0 mi North 25.3 mph 31.1 mph N/A   Unknown
5:55 PM 26.6 °F 13.4 °F 19.4 °F 74% 30.26 in 10.0 mi North 18.4 mph 28.8 mph N/A   Unknown
6:15 PM 26.6 °F 11.7 °F 19.4 °F 74% 30.25 in 10.0 mi North 24.2 mph 33.4 mph N/A   Unknown
6:35 PM 26.6 °F 11.7 °F 19.4 °F 74% 30.25 in 10.0 mi North 24.2 mph 31.1 mph N/A   Unknown
6:55 PM 26.6 °F 12.7 °F 19.4 °F 74% 30.23 in 10.0 mi North 20.7 mph 28.8 mph N/A   Unknown
7:15 PM 26.6 °F 12.0 °F 19.4 °F 74% 30.22 in 10.0 mi North 23.0 mph 32.2 mph N/A   Overcast
7:35 PM 26.6 °F 13.1 °F 19.4 °F 74% 30.22 in 10.0 mi North 19.6 mph 31.1 mph N/A   Overcast
7:55 PM 26.6 °F 13.1 °F 19.4 °F 74% 30.22 in 10.0 mi North 19.6 mph 26.5 mph N/A   Overcast
8:15 PM 26.6 °F 13.4 °F 19.4 °F 74% 30.22 in 10.0 mi North 18.4 mph 28.8 mph N/A   Overcast
8:35 PM 26.6 °F 12.7 °F 19.4 °F 74% 30.24 in 10.0 mi North 20.7 mph 26.5 mph N/A   Overcast
8:55 PM 26.6 °F 12.7 °F 19.4 °F 74% 30.25 in 10.0 mi North 20.7 mph 26.5 mph N/A   Overcast
9:15 PM 26.6 °F 13.4 °F 19.4 °F 74% 30.26 in 10.0 mi North 18.4 mph 25.3 mph N/A   Overcast
9:35 PM 26.6 °F 13.4 °F 19.4 °F 74% 30.27 in 10.0 mi North 18.4 mph 24.2 mph N/A   Overcast
9:55 PM 24.8 °F 11.1 °F 19.4 °F 80% 30.26 in 10.0 mi North 18.4 mph 28.8 mph N/A   Overcast
10:15 PM 24.8 °F 10.7 °F 19.4 °F 80% 30.26 in 10.0 mi North 19.6 mph 25.3 mph N/A   Overcast
10:35 PM 24.8 °F 10.7 °F 19.4 °F 80% 30.27 in 10.0 mi North 19.6 mph 27.6 mph N/A   Overcast
10:55 PM 24.8 °F 11.1 °F 19.4 °F 80% 30.26 in 10.0 mi North 18.4 mph 24.2 mph N/A   Overcast
11:15 PM 24.8 °F 11.9 °F 19.4 °F 80% 30.27 in 10.0 mi North 16.1 mph - N/A   Overcast
11:35 PM 24.8 °F 11.9 °F 19.4 °F 80% 30.26 in 10.0 mi North 16.1 mph - N/A   Overcast
11:55 PM 24.8 °F 11.9 °F 19.4 °F 80% 30.28 in 10.0 mi North 16.1 mph - N/A   Overcast